www.pogodaiklimat.ru
ПОГОДА в Аэропорту Рейна-София
Время
(UTC), дата
04 12.11
05 12.11
06 12.11
07 12.11
08 12.11
09 12.11
10 12.11
11 12.11
12 12.11
13 12.11
14 12.11
15 12.11
16 12.11
17 12.11
18 12.11
19 12.11
20 12.11
21 12.11
22 12.11
23 12.11
00 13.11
01 13.11
02 13.11
03 13.11
04 13.11
05 13.11
06 13.11
07 13.11
08 13.11
09 13.11
10 13.11
11 13.11
12 13.11
13 13.11
14 13.11
15 13.11
16 13.11
17 13.11
18 13.11
19 13.11
21 13.11
00 14.11
01 14.11
02 14.11
03 14.11
04 14.11
05 14.11
06 14.11
07 14.11
08 14.11
09 14.11
10 14.11
11 14.11
12 14.11
13 14.11
14 14.11
15 14.11
16 14.11
17 14.11
18 14.11
19 14.11
20 14.11
21 14.11
22 14.11
23 14.11
00 15.11
01 15.11
02 15.11
03 15.11
04 15.11
05 15.11
06 15.11
07 15.11
08 15.11
09 15.11
10 15.11
11 15.11
12 15.11
13 15.11
14 15.11
15 15.11
16 15.11
17 15.11
18 15.11
19 15.11
20 15.11
21 15.11
22 15.11
23 15.11
00 16.11
01 16.11
02 16.11
03 16.11
04 16.11
05 16.11
06 16.11
07 16.11
08 16.11
09 16.11
10 16.11
11 16.11
12 16.11
13 16.11
14 16.11
15 16.11
16 16.11
17 16.11
18 16.11
19 16.11
20 16.11
21 16.11
22 16.11
23 16.11
00 17.11
01 17.11
02 17.11
03 17.11
04 17.11
05 17.11
06 17.11
07 17.11
08 17.11
09 17.11
10 17.11
11 17.11
12 17.11
13 17.11
14 17.11
15 17.11
16 17.11
17 17.11
18 17.11
19 17.11
20 17.11
21 17.11
22 17.11
23 17.11
00 18.11
01 18.11
02 18.11
03 18.11
04 18.11
05 18.11
06 18.11
07 18.11
08 18.11
09 18.11
10 18.11
11 18.11
12 18.11
13 18.11
14 18.11
15 18.11
16 18.11
17 18.11
18 18.11
19 18.11
20 18.11
21 18.11
22 18.11
23 18.11
00 19.11
01 19.11
02 19.11
03 19.11
Ветер
(напр.,м/с)
Видим. Явления Облачность Т
(С)
Тd
(С)
f
(%)
Тe
(С)
Тes
(С)
Комфортность P
(гПа)
Po
(гПа)
Тmin
(С)
Tmax
(С)
R
(мм)
R24
(мм)
S
(см)
СВ 9 н/о н/о +20.3 +13.5 65 +22 +22 комфорт 1018.7 1009.7
СВ 6 н/о н/о +20.1 +14.0 68 +22 +22 комфорт 1018.9 1009.9
СВ 9 н/о н/о +20.7 +13.7 64 +23 +23 комфорт 1018.7 1009.7 +19.9
СВ 6 н/о н/о +20.5 +13.9 66 +23 +23 комфорт 1018.7 1009.7
С 3 н/о н/о +20.6 +13.5 64 +24 +24 комфорт 1019.3 1010.3
СВ 9 30 км [макс. диам. градин 0 мм] 3/1 1000 м
[Sc Ac trans]
+23.0 +14.6 59 +27 +27 душно 1019.3 1010.4
СВ 10 н/о н/о +24.1 +15.3 58 +27 +27 жарко 1019.8 1010.9
В 11 н/о н/о +24.7 +17.0 62 +28 +28 душно 1020.1 1011.2
СВ 13 30 км [макс. диам. градин 0 мм] 5/4 1000 м
[Cu Sc Ac As]
+25.2 +14.6 52 +28 +28 жарко 1019.4 1010.5
В 12 н/о н/о +25.7 +15.1 52 +29 +29 душно 1018.4 1009.6
СВ 14 н/о н/о +25.3 +16.1 57 +29 +29 душно 1017.5 1008.7
СВ 12
{21}
30 км [макс. диам. градин 0 мм] 4/1 1000 м
[Sc Ac As Ci ing]
+26.0 +14.3 48 +28 +28 жарко 1016.8 1008.0
СВ 13 н/о н/о +24.9 +15.7 57 +28 +28 жарко 1016.8 1008.0
СВ 10 н/о н/о +23.7 +16.7 65 +27 +27 жарко 1016.9 1008.0
СВ 11 30 км [макс. диам. градин 0 мм] 1/1 1000 м
[Sc]
+22.4 +16.2 68 +27 +27 душно 1016.6 1007.7 +26.5
СВ 10 н/о н/о +22.0 +14.1 61 +25 +25 комфорт 1017.1 1008.2
СВ 9 н/о н/о +21.3 +14.5 65 +24 +24 комфорт 1017.4 1008.4
СВ 9 20 км [макс. диам. градин 0 мм] 1/1 1000 м
[Sc]
+21.1 +13.3 61 +23 +23 комфорт 1017.6 1008.6
СВ 11 н/о н/о +21.0 +13.4 62 +23 +23 комфорт 1016.9 1007.9
СВ 10 н/о н/о +21.1 +12.5 58 +23 +23 комфорт 1016.9 1007.9
СВ 6 20 км [макс. диам. градин 0 мм] 5/1 1000 м
[Sc Ac und]
+21.1 +11.4 54 +23 +23 комфорт 1017.3 1008.3
СВ 8 н/о н/о +21.0 +12.4 58 +23 +23 комфорт 1017.0 1008.0
СВ 5 н/о н/о +21.2 +11.8 55 +23 +23 комфорт 1016.7 1007.7
СВ 10 20 км [макс. диам. градин 0 мм] 5/1 1000 м
[Sc Ac und]
+22.5 +8.9 42 +24 +24 комфорт 1016.1 1007.2
СВ 8 н/о н/о +22.6 +9.0 42 +24 +24 комфорт 1015.9 1007.0
СВ 5 н/о н/о +20.8 +11.6 56 +23 +23 комфорт 1016.6 1007.6
СВ 10 20 км [макс. диам. градин 0 мм] 6/1 1000 м
[Sc Cs]
+20.3 +13.7 66 +22 +22 комфорт 1016.8 1007.8 +20.3
СВ 8 н/о н/о +20.1 +13.1 64 +22 +22 комфорт 1017.5 1008.5
СВ 9 н/о н/о +20.5 +13.2 63 +22 +22 комфорт 1018.2 1009.2
СВ 12 40 км [макс. диам. градин 0 мм] 9/1 600 м
[Sc Ci fib]
+21.6 +13.7 61 +24 +24 комфорт 1018.8 1009.8
СВ 14 н/о н/о +22.8 +13.5 56 +26 +26 жарко 1018.9 1010.0
СВ 12 н/о н/о +24.1 +13.6 52 +26 +26 жарко 1019.3 1010.4
В 13 40 км [макс. диам. градин 0 мм] 9/1 600 м
[Sc Ci sp]
+23.7 +14.4 56 +26 +26 жарко 1018.6 1009.7
В 13 н/о н/о +24.0 +14.6 56 +27 +27 жарко 1018.0 1009.1
В 12 н/о н/о +24.5 +14.6 54 +27 +27 жарко 1017.4 1008.5
В 12 30 км [макс. диам. градин 0 мм] 9/1 600 м
[Sc Ci sp]
+24.4 +14.8 55 +27 +27 жарко 1017.1 1008.2
В 11 н/о н/о +24.0 +14.6 56 +27 +27 жарко 1016.9 1008.0
СВ 10 н/о н/о +22.7 +13.2 55 +26 +26 жарко 1017.1 1008.2
СВ 9 30 км [макс. диам. градин 0 мм] 9/1 600 м
[Sc Ci sp]
+21.6 +13.2 59 +24 +24 комфорт 1017.0 1008.1 +24.8
СВ 9 н/о н/о +21.0 +12.1 57 +23 +23 комфорт 1016.9 1007.9
СВ 6 н/о [макс. диам. градин 0 мм] н/о +20.5 +13.2 63 +23 +23 комфорт 1018.4 1009.4
СВ 5 30 км [макс. диам. градин 0 мм] н/о +20.2 +12.4 61 +22 +22 комфорт 1018.1 1009.1
СВ 8 н/о н/о +20.2 +12.5 61 +22 +22 комфорт 1017.6 1008.6
СВ 6 н/о н/о +20.3 +11.8 58 +22 +22 комфорт 1017.0 1008.0
С 7 40 км [макс. диам. градин 0 мм] н/о +20.2 +11.9 59 +22 +22 комфорт 1016.6 1007.6
СВ 5 н/о н/о +20.0 +11.0 56 +21 +21 комфорт 1016.2 1007.2
СВ 8 н/о н/о +20.5 +11.1 55 +22 +22 комфорт 1015.8 1006.8
С 6 40 км [макс. диам. градин 0 мм] н/о +20.4 +11.1 55 +22 +22 комфорт 1016.6 1007.6 +19.8
СВ 4 н/о н/о +20.0 +11.3 57 +22 +22 комфорт 1016.7 1007.7
СВ 4 н/о н/о +20.4 +13.1 63 +23 +23 комфорт 1017.2 1008.2
СВ 8 30 км [макс. диам. градин 0 мм] 10/1 600 м
[Sc Cs]
+21.3 +15.4 69 +24 +25 комфорт 1017.9 1008.9
В 9 н/о н/о +22.6 +16.6 69 +27 +27 душно 1017.9 1009.0
В 11 н/о н/о +23.3 +16.1 64 +28 +28 душно 1017.9 1009.0
СВ 8 30 км [макс. диам. градин 0 мм] 10/1 600 м
[Sc Cs]
+24.9 +13.8 50 +27 +28 жарко 1017.5 1008.6
В 12 н/о н/о +23.0 +15.6 63 +27 +27 душно 1017.2 1008.3
СВ 12 н/о н/о +23.4 +13.0 52 +26 +26 жарко 1016.6 1007.7
В 9 30 км [макс. диам. градин 0 мм] 10/4 600 м
[Sc Ac As Cs]
+23.4 +13.8 55 +27 +27 душно 1016.3 1007.4
В 10 н/о н/о +23.2 +14.3 57 +27 +27 душно 1016.4 1007.5
В 11 н/о н/о +22.0 +15.1 65 +26 +26 душно 1016.5 1007.6
СВ 11 30 км [макс. диам. градин 0 мм] 6/6 1000 м
[Sc]
+21.3 +14.2 64 +24 +24 комфорт 1016.7 1007.7 +25.5
СВ 8 н/о н/о +20.7 +14.8 69 +23 +23 комфорт 1016.8 1007.8
СВ 10 н/о н/о +20.1 +13.8 67 +21 +21 комфорт 1017.3 1008.3
СВ 11 35 км [макс. диам. градин 0 мм] н/о +20.3 +14.0 67 +22 +22 комфорт 1017.4 1008.4
СВ 10 н/о н/о +20.5 +12.7 61 +22 +22 комфорт 1017.6 1008.6
СВ 11 н/о н/о +20.1 +13.1 64 +21 +21 комфорт 1017.1 1008.1
СВ 9 40 км [макс. диам. градин 0 мм] н/о +20.1 +13.5 66 +21 +21 комфорт 1017.6 1008.6
СВ 7 н/о н/о +19.8 +12.1 61 +21 +21 комфорт 1017.6 1008.6
СВ 9 н/о н/о +20.1 +12.5 62 +21 +21 комфорт 1017.2 1008.2
СВ 8 40 км [макс. диам. градин 0 мм] н/о +19.8 +11.6 59 +21 +21 комфорт 1017.1 1008.1
СВ 5 н/о н/о +19.7 +10.4 55 +21 +21 комфорт 1016.4 1007.4
СВ 6 н/о н/о +19.8 +11.8 60 +21 +21 комфорт 1016.5 1007.5
штиль 0 50 км [макс. диам. градин 0 мм] н/о +19.3 +10.0 55 +20 +20 тепло 1016.3 1007.3 +18.2
СВ 4 н/о н/о +18.6 +12.8 69 +19 +19 тепло 1016.9 1007.9
С 3 н/о н/о +18.9 +11.8 63 +20 +20 тепло 1017.2 1008.2
В 3 30 км [макс. диам. градин 0 мм] 6/4 1000 м
[Cu Sc Ac lent Ci fib]
+21.9 +12.7 56 +24 +25 комфорт 1017.7 1008.8
СВ 9 н/о н/о +22.3 +14.2 60 +26 +26 жарко 1018.3 1009.4
В 9 н/о н/о +22.7 +14.0 58 +26 +26 жарко 1018.4 1009.5
В 10 30 км [макс. диам. градин 0 мм] 8/8 1000 м
[Cu Sc]
+21.7 +14.5 64 +25 +25 комфорт 1018.0 1009.1
В 9 н/о н/о +21.5 +13.7 61 +24 +24 комфорт 1017.4 1008.4
В 12 н/о н/о +22.1 +14.2 61 +25 +25 комфорт 1016.6 1007.7
В 11 30 км [макс. диам. градин 0 мм] 9/9 1000 м
[Cu Sc]
+20.6 +13.5 64 +22 +22 комфорт 1016.4 1007.4
В 10 н/о н/о +21.3 +11.9 55 +23 +23 комфорт 1016.1 1007.1
В 12 н/о н/о +20.9 +11.0 53 +22 +22 комфорт 1016.1 1007.1
СВ 11 30 км [макс. диам. градин 0 мм] 8/8 1000 м
[Cu Sc]
+20.1 +11.0 56 +21 +21 комфорт 1016.3 1007.3 +23.6
СВ 10 н/о н/о +19.6 +10.6 56 +20 +20 тепло 1016.7 1007.7
СВ 9 н/о в посл. час осадки н/о +19.3 +11.0 59 +20 +20 тепло 1017.2 1008.2
СВ 8 30 км [макс. диам. градин 0 мм] 5/5 1000 м
[Cu Sc]
+18.9 +11.0 60 +19 +19 тепло 1017.9 1008.9
СВ 7 н/о н/о +19.0 +10.0 56 +19 +19 тепло 1018.3 1009.3
СВ 10 н/о н/о +18.3 +12.1 67 +17 +17 тепло 1019.0 1009.9
СВ 4 20 км [макс. диам. градин 0 мм] 3/3 1000 м
[Sc]
+17.4 +11.0 66 +17 +17 тепло 1018.9 1009.8 0.0
СВ 5 н/о н/о +17.8 +10.8 64 +17 +17 тепло 1018.4 1009.3
СВ 8 н/о н/о +17.3 +13.0 76 +16 +16 тепло 1018.6 1009.5
СВ 8 30 км [макс. диам. градин 0 мм] 5/5 1000 м
[Cu Sc]
+18.3 +11.6 65 +18 +18 тепло 1018.5 1009.4
С 4 н/о н/о +17.1 +10.5 65 +17 +17 тепло 1018.1 1009.0
С 3 н/о н/о +17.3 +9.9 62 +17 +17 тепло 1018.2 1009.1
СВ 6 20 км [макс. диам. градин 0 мм] 6/6 1000 м
[Cu Sc]
+17.3 +10.2 63 +17 +17 тепло 1018.5 1009.4 +16.5 0.0 0.0
СВ 6 н/о н/о +17.6 +11.3 67 +17 +17 тепло 1019.0 1009.9
СВ 4 н/о н/о +19.1 +11.1 60 +20 +20 тепло 1019.3 1010.2
СВ 6 30 км [макс. диам. градин 0 мм] 3/3 1000 м
[Sc]
+20.1 +10.2 53 +21 +22 комфорт 1019.7 1010.7
СВ 7 н/о н/о +22.0 +10.2 47 +24 +24 комфорт 1020.4 1011.4
СВ 12 н/о н/о +23.0 +9.2 41 +24 +24 комфорт 1020.2 1011.3
В 12 30 км [макс. диам. градин 0 мм] ясно +23.3 +9.7 42 +25 +25 комфорт 1019.7 1010.8
В 11 н/о н/о +24.2 +10.5 42 +25 +25 комфорт 1019.0 1010.1
В 12 н/о н/о +23.1 +11.8 49 +26 +26 жарко 1018.3 1009.4
В 13 30 км [макс. диам. градин 0 мм] 1/1 1000 м
[Sc]
+22.7 +12.9 54 +26 +26 жарко 1017.8 1008.9
СВ 14 н/о н/о +21.7 +11.4 52 +24 +24 комфорт 1018.2 1009.2
В 11 н/о н/о +21.6 +11.6 53 +24 +24 комфорт 1018.3 1009.3
СВ 10 30 км [макс. диам. градин 0 мм] ясно +20.4 +10.8 54 +21 +21 комфорт 1018.6 1009.6 +24.2
СВ 10 н/о н/о +19.7 +11.5 59 +20 +20 тепло 1019.3 1010.3
СВ 6 н/о н/о +19.3 +12.1 63 +20 +20 тепло 1019.8 1010.8
СВ 6 40 км [макс. диам. градин 0 мм] н/о +19.4 +11.9 62 +20 +20 тепло 1020.2 1011.2
СВ 8 н/о н/о +19.4 +9.7 53 +20 +20 тепло 1020.4 1011.3
СВ 7 н/о н/о +18.9 +12.2 65 +19 +19 тепло 1020.7 1011.6
СВ 6 50 км [макс. диам. градин 0 мм] н/о +18.5 +11.1 62 +18 +18 тепло 1020.9 1011.8
СВ 6 н/о н/о +18.5 +10.6 60 +18 +18 тепло 1021.0 1011.9
СВ 7 н/о н/о +18.9 +12.6 67 +19 +19 тепло 1020.7 1011.6
СВ 8 50 км [макс. диам. градин 0 мм] н/о +17.7 +13.2 75 +17 +17 тепло 1021.2 1012.1
СВ 5 н/о н/о +17.7 +11.7 68 +17 +17 тепло 1020.8 1011.7
СВ 6 н/о н/о +17.5 +11.5 68 +17 +17 тепло 1020.9 1011.8
СВ 7 50 км [макс. диам. градин 0 мм] н/о +17.6 +11.9 69 +17 +17 тепло 1021.0 1011.9 +17.3
СВ 5 н/о н/о +17.5 +11.5 68 +17 +17 тепло 1021.5 1012.4
СВ 6 н/о н/о +17.6 +12.9 74 +17 +17 тепло 1022.0 1012.9
СВ 7 40 км [макс. диам. градин 0 мм] 4/4 600 м
[Sc]
+18.9 +13.1 69 +19 +19 тепло 1022.5 1013.4
СВ 9 н/о н/о +20.5 +12.2 59 +22 +22 комфорт 1022.7 1013.7
СВ 11 н/о н/о +21.1 +11.4 54 +23 +23 комфорт 1022.7 1013.7
СВ 10 40 км [макс. диам. градин 0 мм] 9/9 600 м
[Sc]
+20.4 +11.6 57 +22 +22 комфорт 1022.4 1013.4
В 11 н/о н/о +23.2 +9.9 43 +25 +25 комфорт 1021.1 1012.2
СВ 10 н/о н/о +21.5 +11.1 52 +23 +23 комфорт 1020.6 1011.6
СВ 10 50 км [макс. диам. градин 0 мм] 8/8 1000 м
[Sc]
+21.1 +12.8 59 +23 +23 комфорт 1020.1 1011.1
СВ 11 н/о н/о +20.8 +11.1 54 +22 +22 комфорт 1020.1 1011.1
СВ 9 н/о н/о +20.6 +11.2 55 +22 +22 комфорт 1020.2 1011.2
СВ 9 40 км [макс. диам. градин 0 мм] 8/8 1000 м
[Sc]
+20.0 +10.7 55 +21 +21 комфорт 1020.2 1011.2 +23.2
СВ 7 н/о н/о +19.2 +12.2 64 +20 +20 тепло 1020.7 1011.6
СВ 9 н/о н/о +18.9 +11.7 63 +19 +19 тепло 1021.0 1011.9
СВ 8 н/о н/о +18.9 +11.0 60 +19 +19 тепло 1021.4 1012.3
СВ 7 н/о н/о +18.8 +10.1 57 +19 +19 тепло 1021.8 1012.7
СВ 7 н/о н/о +18.6 +8.8 53 +18 +18 тепло 1021.7 1012.6
СВ 7 н/о н/о +18.7 +10.0 57 +19 +19 тепло 1021.8 1012.7
СВ 6 н/о н/о +18.4 +9.2 55 +18 +18 тепло 1021.5 1012.4
СВ 8 н/о н/о +18.8 +10.4 58 +19 +19 тепло 1021.1 1012.0
СВ 10 н/о н/о +18.6 +11.3 62 +18 +18 тепло 1020.7 1011.6
СВ 5 н/о н/о +18.2 +10.6 61 +18 +18 тепло 1020.7 1011.6
СВ 5 н/о н/о +17.6 +10.9 65 +17 +17 тепло 1020.7 1011.6
СВ 7 30 км [макс. диам. градин 0 мм] ясно +18.2 +10.6 61 +18 +18 тепло 1020.5 1011.4 +17.3
СВ 7 н/о н/о +18.2 +9.5 57 +18 +18 тепло 1020.9 1011.8
СВ 8 н/о н/о +18.9 +11.2 61 +19 +19 тепло 1021.6 1012.5
СВ 8 30 км [макс. диам. градин 0 мм] 1/1 1000 м
[Cu Sc]
+20.5 +11.7 57 +22 +22 комфорт 1021.9 1012.9
СВ 10 н/о н/о +21.9 +11.6 52 +24 +24 комфорт 1022.4 1013.4
В 12 н/о н/о +22.5 +11.6 50 +25 +25 комфорт 1022.4 1013.4
В 11 30 км [макс. диам. градин 0 мм] 1/1 1000 м
[Cu Sc]
+22.8 +11.8 50 +25 +25 комфорт 1021.8 1012.8
В 9 н/о н/о +22.9 +12.8 53 +26 +26 жарко 1021.1 1012.2
В 8 н/о н/о +23.2 +12.8 52 +26 +26 жарко 1020.5 1011.6
В 9 30 км [макс. диам. градин 0 мм] 5/5 1000 м
[Cu Sc]
+23.2 +13.7 55 +27 +27 душно 1020.2 1011.3
В 8 н/о н/о +22.9 +13.9 57 +26 +26 жарко 1020.2 1011.3
В 7 н/о н/о +21.2 +14.4 65 +24 +24 комфорт 1020.7 1011.7
СВ 8 30 км [макс. диам. градин 0 мм] 5/5 600 м
[Cu Sc]
+20.3 +13.5 65 +22 +22 комфорт 1020.7 1011.7 +23.6
В 8 н/о н/о +19.8 +14.2 70 +21 +21 комфорт 1020.8 1011.8
В 5 н/о н/о +19.3 +13.7 70 +20 +20 тепло 1021.3 1012.2
СВ 5 20 км [макс. диам. градин 0 мм] 1/1 1000 м
[Cu Sc]
+18.8 +12.1 65 +19 +19 тепло 1021.7 1012.6
СВ 4 н/о в посл. час осадки н/о +17.7 +10.1 61 +18 +18 тепло 1021.9 1012.8
СВ 4 н/о н/о +17.3 +9.9 62 +17 +17 тепло 1022.0 1012.9
С 4 20 км [макс. диам. градин 0 мм] 1/1 1000 м
[Sc]
+17.9 +10.3 61 +18 +18 тепло 1022.0 1012.9 0.0
С 4 н/о н/о +16.9 +10.7 67 +17 +17 тепло 1021.8 1012.7
С 4 н/о н/о +17.0 +10.6 66 +17 +17 тепло 1021.2 1012.1
СЗ 4 20 км [макс. диам. градин 0 мм] 1/1 1000 м
[Sc]
+16.4 +10.0 66 +16 +16 тепло 1020.8 1011.6
Местоположение метеостанции Аэропорт Рейна-София (Канарские Острова): широта 28.05 долгота -16.56 высота над уровнем моря 77 м.
В архиве по умолчанию представлена погода в Аэропорту Рейна-София за последнюю неделю. Архивные данные за месяц целиком и за предыдущие месяцы, начиная с января 2011 года, Вы можете получить, выбрав интересующий диапазон дат из раскрывающегося списка и нажав кнопку "Найти!".
*Определитесь, кто Вы:
Внимание! Время в таблицах - всемирное. Для получения местного времени необходимо прибавить поправку, которая равна 0 ч.
Смотрите также архив погоды в соседних городах и на ближайших метеорологических станциях:
Партнеры нашего сайта:      
Пояснения к столбцам:
  • Ветер - указаны скорость ветра в м/с - средняя за 10 мин, порывы в срок и между сроками (в фигурных скобках) и направление, откуда дует ветер: С - северный,
  • СВ - северо-восточный, В - восточный, ЮВ - юго-восточный, Ю - южный, ЮЗ - юго-западный, З - западный, СЗ - северо-западный.
  • Видимость - горизонтальная дальность видимости в метрах или километрах. При видимости от 1 до 10 км при отсутствии осадков обычно наблюдается дымка, при ухудшении видимости до 1 км и менее - туман. В сухую погоду видимость может ухудшаться дымом, пылью или мглою.
  • Явления - указаны атмосферные явления, наблюдавшиеся в срок или в последний час перед сроком; фигурными скобками обозначены явления, наблюдавшиеся между сроками (за 1-3 часа до срока); квадратными скобками обозначены град или гололедные отложения с указанием их диаметра в мм.
  • Облачность - указаны через наклонную черту общая и нижняя облачность в баллах и высота нижней границы облаков в метрах; квадратными скобками обозначены формы облаков: Ci - перистые, Cs - перисто-слоистые, Cc - перисто-кучевые, Ac - высококучевые, As - высокослоистые, Sc - слоисто-кучевые, Ns - слоисто-дождевые, Cu - кучевые, Cb - кучево-дождевые. Подробнее классификацию облаков см. в Атласе облаков (PDF).
  • T - Температура воздуха - температура, измеренная на высоте 2 м над землей.
  • Td - Температура точки росы - температура, при понижении до которой содержащийся в воздухе водяной пар достигнет насыщения.
  • f - Относительная влажность воздуха - влажноcть воздуха, измеренная на высоте 2 м над землей.
  • Te - Эффективная температура - температура, которую ощущает одетый по сезону человек в тени. Характеристика душности погоды. При расчете учитывается влияние влажности воздуха и скорости ветра на теплоощущения человека.
  • Tes - Эффективная температура на солнце - температура, которую ощущает человек, с поправкой на солнечный нагрев. Характеристика знойности погоды. Зависит от высоты солнца над горизонтом, облачности и скорости ветра. Ночью, в пасмурную погоду, а также при ветре 12 м/с и более поправка равна нулю.
  • P - Атмосферное давление - приведенное к уровню моря атмосферное давление.
  • Po - Атмосферное давление - измеренное на уровне метеостанции атмосферное давление.
  • Tmin - Минимальная температура - минимум температуры воздуха на высоте 2 м над землей.
  • Tmax - Максимальная температура - максимум температуры воздуха на высоте 2 м над землей.
  • R - Количество осадков - Количество выпавших осадков за период времени, мм. При наведении курсора мыши на число - период времени, за который выпало указанное количество осадков.
  • R24 - Количество осадков - Количество выпавших осадков за 24 часа, мм.
  • S - Снежный покров - Высота снежного покрова, см. При наведении курсора мыши на число - состояние снежного покрова и степень покрытия местности в баллах.